Location: Baia Mare
(47.6567°N, 23.5850°E)
Time: 01:26:14
(UTC+03:00)

ISS - Pass Details

Date: 10 September 2018
Orbit: 403 x 408 km, 51.6° (Epoch: 23 September)

Event Time Altitude Azimuth Distance (km) Brightness Sun altitude
Exits shadow 05:29:14 18° 300° (WNW) 1,097 -2.0 -14.8°
Maximum altitude 05:31:22 40° 4° (N) 618 -2.7 -14.4°
Drops below altitude 10° 05:34:29 10° 76° (ENE) 1,462 0.4 -14.0°
Sets 05:36:38 0° 84° (E) 2,320 1.6 -13.6°
